Hourly Data Report for November 10, 2016

CARBERRY CS
MANITOBA

49°54'20.900" N
99°21'26.800" W
383.50 m
5010547
71170
WZE

Download Data

Hourly Data (November 2016)
Hourly Data Report for November 10, 2016
TIME
LST
Temp Definition
°C
Dew Point Definition
°C
Rel Hum Definition
%
Precip. Amount Definition
mm

Wind Dir Definition
10's deg

Wind Spd Definition
km/h
Visibility Definition
km
Stn Press Definition
kPa
Hmdx Definition


Wind Chill Definition


Weather Definition


00:00 8.4 4.8 78 0.0 26 19   96.41     LegendNANA
01:00 6.8 3.9 82 0.0 26 16   96.46     LegendNANA
02:00 5.4 3.2 86 0.0 27 14   96.55     LegendNANA
03:00 5.4 3.2 86 0.0 25 9   96.64     LegendNANA
04:00 4.5 2.8 89 0.0 27 17   96.74     LegendNANA
05:00 5.1 3.0 86 0.0 28 17   96.87     LegendNANA
06:00 4.5 2.6 87 0.0 26 14   97.01     LegendNANA
07:00 4.8 2.9 87 0.0 29 18   97.17     LegendNANA
08:00 5.0 2.9 86 0.0 29 21   97.30     LegendNANA
09:00 6.5 3.4 81 0.0 29 21   97.44     LegendNANA
10:00 8.7 3.8 71 0.0 30 19   97.52     LegendNANA
11:00 10.9 3.0 58 0.0 30 23   97.59     LegendNANA
12:00 12.6 1.3 46 0.0 31 31   97.62     LegendNANA
13:00 13.1 1.4 45 0.0 30 33   97.63     LegendNANA
14:00
15:00 12.8 0.8 44 0.0 30 35   97.73     LegendNANA
16:00 11.5 0.7 47 0.0 30 32   97.81     LegendNANA
17:00 9.1 1.1 57 0.0 30 22   97.92     LegendNANA
18:00 6.8 0.6 65 0.0 30 17   98.01     LegendNANA
19:00 5.7 0.1 67 0.0 35 13   98.17     LegendNANA
20:00 4.2 0.0 74 0.0 2 10   98.30     LegendNANA
21:00 1.9 -0.6 84 0.0 30 6   98.38     LegendNANA
22:00 1.5 -1.1 83 0.0 34 10   98.44     LegendNANA
23:00 0.4 -1.4 88 0.0 36 9   98.53     LegendNANA

Notes on Data Quality.

Legend

  • E = Estimated
  • M = Missing
  • NA = Not Available*
  • [empty] = Indicates an unobserved value
Date modified: